Home > Weather > Juiz de Fora > Past weeks

Flag for Brazil Past Weather in Juiz de Fora, Minas Gerais, Brazil — Yesterday and Last 2 Weeks

Now
68 °F

Broken clouds.


Feels Like: 68 °F
Forecast: 56 / 65 °F
Wind: 5 mph from East

Location: Galeao

Current Time: Jun 25, 2016 at 9:25:01 AM

Latest Report: Jun 25, 2016 at 9:00 AM


Visibility: 4 mi

Pressure: 30.36 "Hg (27.99 "Hg at 697m altitude)

Humidity: 83%

Dew Point: 63 °F

Location of Juiz de ForaLocation

Past Weather in Juiz de Fora — Graph

°F

Juiz de Fora Temperature Yesterday

Maximum temperature yesterday: 72 °F (at 2:00 PM)
Minimum temperature yesterday: 61 °F (at 6:00 AM)
Average temperature yesterday: 66 °F

High & Low Weather Summary for the Past Weeks

 TemperatureHumidityPressure
High81 °F (Jun 17, 3:00 PM)94% (Jun 15, 3:00 AM)30.42 "Hg (Jun 15, 3:00 AM)
Low55 °F (Jun 13, 4:00 AM)40% (Jun 13, 11:00 AM)30.04 "Hg (Jun 17, 2:00 PM)
Average66 °F77%30.21 "Hg
* Reported Jun 10 8:00 AM — Jun 25 8:00 AM, Juiz de Fora, Weather by CustomWeather, © 2016

Note: Actual official high and low records may vary slightly from our data, if they occured in-between our weather recording intervals... More about our weather records

Advertising

Juiz de Fora Weather History for the Previous 24 Hours

Scroll right to see more
 ConditionsComfort  
Time TempWeatherWind HumidityBarometerVisibility
8:00 AM
Sat, Jun 25
64 °FFog.3 mph88%30.33 "Hg2 mi
7:00 AM63 °FFog.2 mph88%30.33 "Hg1 mi
6:00 AM63 °FFog.No wind88%30.30 "Hg1 mi
5:00 AM64 °FFog.3 mph88%30.30 "Hg1 mi
4:00 AM63 °FFog.3 mph88%30.27 "Hg1 mi
3:00 AM64 °FClear.2 mph83%30.30 "Hg10 mi
2:00 AM64 °FPartly cloudy.3 mph83%30.30 "HgN/A
1:00 AM64 °FPassing clouds.3 mph83%30.30 "HgN/A
12:00 AM64 °FMostly cloudy.5 mph83%30.30 "HgN/A
11:00 PM
Fri, Jun 24
64 °FMostly cloudy.6 mph83%30.30 "HgN/A
10:00 PM66 °FClear.5 mph83%30.30 "Hg10 mi
9:00 PM66 °FPassing clouds.2 mph83%30.27 "HgN/A
8:00 PM66 °FPassing clouds.5 mph83%30.27 "HgN/A
7:00 PM66 °FPassing clouds.3 mph78%30.24 "HgN/A
6:00 PM68 °FPassing clouds.2 mph73%30.24 "HgN/A
5:00 PM68 °FPassing clouds.2 mph73%30.21 "HgN/A
4:00 PM70 °FPartly sunny.5 mph69%30.21 "HgN/A
3:00 PM70 °FPartly sunny.6 mph64%30.21 "HgN/A
2:00 PM72 °FPartly sunny.7 mph69%30.21 "HgN/A
1:00 PM70 °FPartly sunny.6 mph73%30.24 "HgN/A
12:00 PM70 °FBroken clouds.6 mph69%30.24 "HgN/A
11:00 AM70 °FBroken clouds.3 mph69%30.27 "HgN/A
10:00 AM68 °FMore clouds than sun.3 mph73%30.27 "Hg6 mi
9:00 AM66 °FOvercast.3 mph83%30.27 "Hg5 mi
Weather by CustomWeather, © 2016

See weather overviewHow to use our weather pages